Location: Bucharest
(44.4268°N, 26.1025°E)
Time: 21:07:52
(UTC+03:00)

CUTE 1.7 + AOD 2 - Pass Details

Date: 29 June 2022
Orbit: 589 x 608 km, 97.7° (Epoch: 10 August)

Event Time Altitude Azimuth Distance (km) Brightness Sun altitude
Rises 04:43:59 0° 19° (NNE) 2,855 ? -7.7°
Reaches altitude 10° 04:46:16 10° 26° (NNE) 1,944 ? -7.4°
Maximum altitude 04:50:17 42° 98° (E) 850 ? -6.9°
Drops below altitude 10° 04:54:15 10° 170° (S) 1,918 ? -6.4°
Sets 04:56:29 0° 178° (S) 2,812 ? -6.1°
